Weather Roundup
Issued by NWS Springfield, MO

Home | Current Version | Previous Version | Text Only | Print | Product List | Glossary On
Versions: 1 2 3 4 5 6 7 8 9 10 11 12 13 14 15 16 17 18 19 20 21 22 23 24 25 26 27 28 29 30 31 32 33 34 35 36 37 38 39 40 41 42 43 44 45 46 47 48 49 50
000
NZUS99 KSGF 260007
HRRSGF

HOURLY WEATHER
NATIONAL WEATHER SERVICE SPRINGFIELD MO
600 PM CST SAT FEB 25 2017

......SGF CWA......

CITY           SKY/WX    TMP DP  RH WIND       PRES   REMARKS
SPRINGFIELD    CLEAR     39  13  34 W3        30.09F
6HR MIN TEMP:  37; 6HR MAX TEMP:  44;

JOPLIN         CLEAR     42  12  29 CALM      30.11F
6HR MIN TEMP:  36; 6HR MAX TEMP:  45;

WEST PLAINS    CLEAR     40  10  29 NW6       30.10S
6HR MIN TEMP:  40; 6HR MAX TEMP:  46;

ROLLA          CLEAR     35  10  35 NW5       30.09R WCI  31
6HR MIN TEMP:  34; 6HR MAX TEMP:  41; 6HR PCP: TRACE;

OSAGE BEACH    CLEAR     38  10  31 CALM      30.11F
BRANSON        CLEAR     41  10  28 CALM      30.11S

......SURROUNDING SGF CWA......

CITY           SKY/WX    TMP DP  RH WIND       PRES   REMARKS
CHANUTE        CLEAR     41  11  29 S7        30.08F
PARSONS        CLEAR     43  12  28 S7        30.10F
COFFEYVILLE    CLEAR     43  13  29 S6        30.10F
EMPORIA        PTCLDY    39   8  27 SW9       30.04F WCI  33
GROVE OK       CLEAR     43  19  39 CALM      30.12F
ROGERS AR      CLEAR     43  12  28 CALM      30.10F
SILOAM SPRINGS CLEAR     43   9  24 CALM      30.10F
HARRISON AR    CLEAR     42  12  29 CALM      30.10F
NEAR YELLVILLE CLEAR     45  12  26 CALM      30.10S

......KANSAS AND MISSOURI......

CITY           SKY/WX    TMP DP  RH WIND       PRES   REMARKS
KANSAS CTY INT PTCLDY    35  10  35 S7        30.05F WCI  29
DOWNTOWN KC    CLEAR     39   8  27 S3        30.06F
COLUMBIA       CLEAR     37   9  31 NW5       30.10S WCI  33
SEDALIA        CLEAR     40   7  25 CALM      30.10F
ST JOSEPH      MOCLDY    37  17  44 S7        30.05F WCI  32
ST LOUIS       PTCLDY    37  11  34 NW8       30.11R WCI  31
SPIRIT OF STL  CLEAR     37  10  32 NW8       30.11R WCI  31
KIRKSVILLE     CLEAR     32  11  41 W3        30.07F
WICHITA        PTCLDY    41  15  35 S10       30.04F
TOPEKA         CLEAR     42  10  27 S7        30.04F
OLATHE         CLEAR     38  11  32 S5        30.05F WCI  34

......TENNESSEE......

CITY           SKY/WX    TMP DP  RH WIND       PRES   REMARKS
MEMPHIS        CLEAR     41  21  44 N6        30.14S
NASHVILLE      CLEAR     44  16  32 NW10      30.08R

......ARKANSAS.......

CITY           SKY/WX    TMP DP  RH WIND       PRES   REMARKS
FAYETTEVILLE   CLEAR     43  12  28 CALM      30.10F
FT SMITH       CLEAR     47  16  29 SW7       30.12F
LITTLE ROCK    CLEAR     45  18  34 N7        30.13F

......OKLAHOMA.......

CITY           SKY/WX    TMP DP  RH WIND       PRES   REMARKS
TULSA          CLEAR     46  10  23 S9        30.09F
PONCA CITY     CLEAR     45  12  26 S7        30.06F
MCALESTER      PTCLDY    49  14  24 CALM      30.10F
OKLAHOMA CITY  PTCLDY    45  13  27 S8        30.05F

......IOWA............

CITY           SKY/WX    TMP DP  RH WIND       PRES   REMARKS
DES MOINES     MOCLDY    31  19  61 SW7       30.02F WCI  24
QUAD CITIES    CLOUDY    30  16  56 W12       30.04R WCI  20

......ILLINOIS........

CITY           SKY/WX    TMP DP  RH WIND       PRES   REMARKS
QUINCY         PTCLDY    32  14  47 W7        30.09R WCI  26
CHICAGO        MOCLDY    27  14  58 W8        29.96R WCI  19




USA.gov is the U.S. government's official web portal to all federal, state and local government web resources and services.